TimeEST,TemperatureF,Dew PointF,Humidity,Sea Level PressureIn,VisibilityMPH,Wind Direction,Wind SpeedMPH,Gust SpeedMPH,PrecipitationIn,Events,Conditions,WindDirDegrees,DateUTC
12:15 AM,30.2,26.6,86,30.03,10.0,Calm,Calm,-,N/A,,Clear,0,2014-02-26 05:15:00
12:35 AM,30.2,26.6,86,30.03,10.0,Calm,Calm,-,N/A,,Clear,0,2014-02-26 05:35:00
12:55 AM,30.2,26.6,86,30.02,10.0,Calm,Calm,-,N/A,,Clear,0,2014-02-26 05:55:00
1:15 AM,30.2,28.4,93,30.03,10.0,Calm,Calm,-,N/A,,Scattered Clouds,0,2014-02-26 06:15:00
1:35 AM,30.2,28.4,93,30.02,10.0,Calm,Calm,-,N/A,,Unknown,0,2014-02-26 06:35:00
1:55 AM,32.0,28.4,87,30.01,10.0,Calm,Calm,-,N/A,,Overcast,0,2014-02-26 06:55:00
2:15 AM,33.8,30.2,87,30.00,10.0,Calm,Calm,-,N/A,,Unknown,0,2014-02-26 07:15:00
2:35 AM,33.8,30.2,87,29.99,10.0,Calm,Calm,-,N/A,,Overcast,0,2014-02-26 07:35:00
2:55 AM,33.8,30.2,87,29.98,10.0,Calm,Calm,-,N/A,,Unknown,0,2014-02-26 07:55:00
3:15 AM,33.8,30.2,87,29.97,10.0,Calm,Calm,-,N/A,,Overcast,0,2014-02-26 08:15:00
3:35 AM,33.8,30.2,87,29.96,10.0,Calm,Calm,-,N/A,,Unknown,0,2014-02-26 08:35:00
3:55 AM,33.8,30.2,87,29.96,10.0,Calm,Calm,-,N/A,,Unknown,0,2014-02-26 08:55:00
4:15 AM,33.8,30.2,87,29.95,10.0,Calm,Calm,-,N/A,,Unknown,0,2014-02-26 09:15:00
4:30 AM,33.8,30.2,87,29.94,10.0,Calm,Calm,-,N/A,,Unknown,0,2014-02-26 09:30:00
4:55 AM,35.6,30.2,81,29.97,10.0,Calm,Calm,-,N/A,,Unknown,0,2014-02-26 09:55:00
5:15 AM,35.6,30.2,81,29.97,10.0,Calm,Calm,-,N/A,,Overcast,0,2014-02-26 10:15:00
5:35 AM,35.6,30.2,81,29.97,10.0,East,3.5,-,N/A,,Unknown,100,2014-02-26 10:35:00
5:55 AM,35.6,28.4,75,29.97,10.0,Calm,Calm,-,N/A,,Unknown,0,2014-02-26 10:55:00
6:15 AM,35.6,26.6,70,29.96,10.0,ESE,4.6,-,N/A,,Unknown,120,2014-02-26 11:15:00
6:35 AM,35.6,26.6,70,29.95,10.0,ESE,4.6,-,N/A,,Overcast,110,2014-02-26 11:35:00
6:55 AM,35.6,26.6,70,29.95,10.0,ESE,4.6,-,N/A,,Unknown,110,2014-02-26 11:55:00
7:15 AM,35.6,26.6,70,29.95,10.0,East,3.5,-,N/A,,Unknown,80,2014-02-26 12:15:00
7:35 AM,35.6,26.6,70,29.97,10.0,Calm,Calm,-,N/A,,Unknown,0,2014-02-26 12:35:00
7:55 AM,37.4,26.6,65,29.99,10.0,Calm,Calm,-,N/A,,Unknown,0,2014-02-26 12:55:00
8:15 AM,37.4,26.6,65,29.99,10.0,Calm,Calm,-,N/A,,Unknown,0,2014-02-26 13:15:00
8:35 AM,37.4,26.6,65,29.99,10.0,Calm,Calm,-,N/A,,Unknown,0,2014-02-26 13:35:00
8:55 AM,37.4,26.6,65,29.99,10.0,Calm,Calm,-,N/A,,Overcast,0,2014-02-26 13:55:00
9:15 AM,39.2,28.4,65,29.99,10.0,Calm,Calm,-,N/A,,Unknown,0,2014-02-26 14:15:00
9:35 AM,39.2,26.6,61,29.99,10.0,Calm,Calm,-,N/A,,Unknown,0,2014-02-26 14:35:00
9:55 AM,39.2,26.6,61,29.99,-9999.0,Calm,Calm,-,N/A,,Unknown,0,2014-02-26 14:55:00
10:15 AM,39.2,26.6,61,29.98,10.0,Calm,Calm,-,N/A,,Unknown,0,2014-02-26 15:15:00
10:35 AM,39.2,26.6,61,29.97,10.0,Calm,Calm,-,N/A,,Unknown,0,2014-02-26 15:35:00
10:55 AM,39.2,28.4,65,29.96,10.0,North,3.5,-,N/A,,Unknown,360,2014-02-26 15:55:00
11:15 AM,41.0,28.4,61,29.96,10.0,Calm,Calm,-,N/A,,Unknown,0,2014-02-26 16:15:00
11:35 AM,41.0,26.6,57,29.93,10.0,Calm,Calm,-,N/A,,Mostly Cloudy,0,2014-02-26 16:35:00
11:55 AM,41.0,26.6,57,29.93,10.0,Calm,Calm,-,N/A,,Mostly Cloudy,0,2014-02-26 16:55:00
12:15 PM,41.0,26.6,57,29.91,10.0,West,3.5,-,N/A,,Unknown,280,2014-02-26 17:15:00
12:35 PM,46.4,26.6,46,29.90,10.0,North,5.8,-,N/A,,Unknown,10,2014-02-26 17:35:00
12:55 PM,48.2,28.4,46,29.89,10.0,NNW,9.2,-,N/A,,Unknown,340,2014-02-26 17:55:00
1:15 PM,48.2,24.8,40,29.88,10.0,WNW,12.7,23.0,N/A,,Unknown,300,2014-02-26 18:15:00
1:35 PM,46.4,24.8,43,29.86,10.0,WNW,10.4,18.4,N/A,,Unknown,290,2014-02-26 18:35:00
1:55 PM,46.4,26.6,46,29.86,10.0,North,6.9,-,N/A,,Unknown,360,2014-02-26 18:55:00
2:15 PM,44.6,26.6,49,29.85,10.0,NNW,10.4,-,N/A,,Unknown,330,2014-02-26 19:15:00
2:35 PM,46.4,26.6,46,29.85,10.0,NNW,9.2,-,N/A,,Unknown,340,2014-02-26 19:35:00
2:55 PM,42.8,26.6,53,29.85,10.0,NNE,9.2,-,N/A,,Unknown,30,2014-02-26 19:55:00
3:15 PM,42.8,26.6,53,29.84,10.0,North,4.6,-,N/A,,Unknown,350,2014-02-26 20:15:00
3:35 PM,42.8,26.6,53,29.84,10.0,Calm,Calm,-,N/A,,Unknown,0,2014-02-26 20:35:00
3:55 PM,44.6,26.6,49,29.83,10.0,North,6.9,-,N/A,,Unknown,360,2014-02-26 20:55:00
4:15 PM,42.8,24.8,49,29.83,10.0,NNW,4.6,-,N/A,,Unknown,340,2014-02-26 21:15:00
4:35 PM,44.6,28.4,53,29.84,10.0,ENE,5.8,-,N/A,,Unknown,60,2014-02-26 21:35:00
4:55 PM,42.8,28.4,57,29.84,10.0,ENE,6.9,-,N/A,,Unknown,60,2014-02-26 21:55:00
5:15 PM,39.2,28.4,65,29.85,10.0,ENE,5.8,-,N/A,,Unknown,60,2014-02-26 22:15:00
5:35 PM,39.2,28.4,65,29.85,10.0,ENE,8.1,-,N/A,,Mostly Cloudy,70,2014-02-26 22:35:00
5:55 PM,37.4,28.4,70,29.85,10.0,East,5.8,-,N/A,,Unknown,80,2014-02-26 22:55:00
6:15 PM,35.6,28.4,75,29.87,10.0,ENE,5.8,-,N/A,,Unknown,70,2014-02-26 23:15:00
6:35 PM,33.8,28.4,81,29.86,10.0,East,4.6,-,N/A,,Unknown,80,2014-02-26 23:35:00
6:55 PM,33.8,28.4,81,29.87,10.0,East,3.5,-,N/A,,Unknown,90,2014-02-26 23:55:00
7:15 PM,33.8,28.4,81,29.87,10.0,Calm,Calm,-,N/A,,Unknown,0,2014-02-27 00:15:00
7:35 PM,32.0,28.4,87,29.87,10.0,East,3.5,-,N/A,,Unknown,80,2014-02-27 00:35:00
7:55 PM,32.0,28.4,87,29.88,10.0,Calm,Calm,-,N/A,,Unknown,0,2014-02-27 00:55:00
8:15 PM,32.0,28.4,87,29.88,10.0,Calm,Calm,-,N/A,,Unknown,0,2014-02-27 01:15:00
8:35 PM,30.2,28.4,93,29.88,10.0,Calm,Calm,-,N/A,,Clear,0,2014-02-27 01:35:00
8:55 PM,30.2,28.4,93,29.89,10.0,Calm,Calm,-,N/A,,Clear,0,2014-02-27 01:55:00
9:15 PM,30.2,26.6,86,29.89,10.0,Calm,Calm,-,N/A,,Clear,0,2014-02-27 02:15:00
9:35 PM,30.2,26.6,86,29.90,10.0,Calm,Calm,-,N/A,,Clear,0,2014-02-27 02:35:00
9:55 PM,30.2,26.6,86,29.89,10.0,Calm,Calm,-,N/A,,Clear,0,2014-02-27 02:55:00
10:15 PM,30.2,26.6,86,29.89,10.0,Calm,Calm,-,N/A,,Clear,0,2014-02-27 03:15:00
10:35 PM,30.2,26.6,86,29.89,10.0,Calm,Calm,-,N/A,,Clear,0,2014-02-27 03:35:00
10:55 PM,28.4,26.6,93,29.88,10.0,Calm,Calm,-,N/A,,Clear,0,2014-02-27 03:55:00
11:15 PM,28.4,26.6,93,29.88,10.0,Calm,Calm,-,N/A,,Clear,0,2014-02-27 04:15:00
11:35 PM,28.4,26.6,93,29.87,10.0,Calm,Calm,-,N/A,,Clear,0,2014-02-27 04:35:00
11:55 PM,28.4,24.8,86,29.87,10.0,Calm,Calm,-,N/A,,Scattered Clouds,0,2014-02-27 04:55:00